Find Shi Jian 4

NORAD ID: 22996 Int'l Des: 1994-010 Owner: CASC1 Country: CN operational
MEOELLIPTICALHEO_ELLIPTICAL

リアルタイム位置

3D地球を読み込み中...

Shi Jian 4について

説明を読み込み中...

次回通過

Passes for default location (London). Set your location on the main map for personalized predictions.

高度履歴

Loading altitude history...

軌道要素

1 22996U 94010A 26138.53903447 .00000188 00000-0 75297-4 0 9998
2 22996 29.0695 268.9994 5550645 253.0972 41.5420 4.64176664446055
Epoch: May 18, 2026 • Age: 36 hours

現在のステータス

高度 8554.6 km
速度 5.21 km/s
衛星直下点 8.44°N, 25.17°E
打ち上げ日 Feb 8, 1994
運用期間 32.2 years
タイプ other

技術仕様

分類 Payload
質量 396.00 kg
乾燥質量 396.00 kg
総質量 396.00 kg
長さ 2.20 m
直径 1.60 m
スパン 2.20 m
形状 Oct Cyl
製造者 CAST
バスタイプ SJ-4
フェーズステータス In Orbit
所有者/国 CASC1/CN

Most Searched